Location: Jastrzębia Góra
(54.8312°N, 18.3037°E)
Time: 15:06:19
(UTC+01:00)

ISS - Pass Details

Date: 29 January 2019
Orbit: 403 x 411 km, 51.6° (Epoch: 18 February)

Event Time Altitude Azimuth Distance (km) Brightness Sun altitude
Rises 18:16:58 0° 249° (WSW) 2,333 1.6 -17.0°
Reaches altitude 10° 18:19:06 10° 242° (WSW) 1,475 0.1 -17.3°
Maximum altitude 18:22:15 43° 170° (S) 590 -3.1 -17.7°
Enters shadow 18:22:46 39° 143° (SE) 628 -3.2 -17.8°
